TimeCST,TemperatureF,Dew PointF,Humidity,Sea Level PressureIn,VisibilityMPH,Wind Direction,Wind SpeedMPH,Gust SpeedMPH,PrecipitationIn,Events,Conditions,WindDirDegrees,DateUTC
12:12 AM,28.0,21.0,75,29.90,10.0,North,21.9,-,0.00,,Light Freezing Drizzle,350,2014-01-05 06:12:00
12:53 AM,26.1,19.9,78,29.94,7.0,North,16.1,28.8,0.00,,Light Freezing Drizzle,350,2014-01-05 06:53:00
1:53 AM,24.1,19.9,84,29.95,3.0,North,19.6,-,0.00,,Light Freezing Drizzle,350,2014-01-05 07:53:00
2:01 AM,24.1,19.0,81,29.94,4.0,North,21.9,27.6,0.00,,Light Freezing Drizzle,350,2014-01-05 08:01:00
2:06 AM,23.0,19.0,85,29.94,4.0,North,18.4,27.6,0.00,,Ice Pellets,350,2014-01-05 08:06:00
2:19 AM,23.0,18.0,81,29.95,6.0,North,24.2,29.9,0.01,Snow,Light Ice Pellets,350,2014-01-05 08:19:00
2:30 AM,23.0,18.0,81,29.96,6.0,NNW,20.7,26.5,0.01,Snow,Light Freezing Drizzle,340,2014-01-05 08:30:00
2:44 AM,21.9,18.0,85,29.95,6.0,North,20.7,26.5,0.01,,Light Freezing Drizzle,350,2014-01-05 08:44:00
2:53 AM,21.9,17.1,82,29.94,7.0,NNW,21.9,29.9,0.01,,Light Freezing Drizzle,340,2014-01-05 08:53:00
3:01 AM,21.9,17.1,82,29.95,5.0,North,19.6,32.2,0.00,Snow,Light Snow,350,2014-01-05 09:01:00
3:11 AM,21.9,17.1,82,29.97,5.0,North,18.4,27.6,0.00,Snow,Light Snow,350,2014-01-05 09:11:00
3:35 AM,21.0,16.0,81,29.98,1.5,NNW,23.0,28.8,0.00,Snow,Light Snow,340,2014-01-05 09:35:00
3:43 AM,21.0,16.0,81,29.97,1.0,North,24.2,31.1,0.01,Snow,Light Snow,350,2014-01-05 09:43:00
3:53 AM,19.9,16.0,85,29.99,1.0,NNW,20.7,-,0.02,Snow,Light Snow,340,2014-01-05 09:53:00
4:53 AM,19.0,15.1,85,30.01,1.2,NNW,19.6,-,0.03,Snow,Light Snow,340,2014-01-05 10:53:00
5:41 AM,19.0,14.0,81,30.03,1.8,NNW,20.7,-,0.01,Snow,Light Snow,340,2014-01-05 11:41:00
5:53 AM,18.0,14.0,84,30.04,1.0,NNW,20.7,-,0.01,Snow,Light Snow,340,2014-01-05 11:53:00
6:53 AM,18.0,12.9,81,30.09,1.8,NNW,23.0,29.9,0.01,Snow,Light Snow,340,2014-01-05 12:53:00
7:18 AM,18.0,12.9,81,30.08,2.0,NNW,17.3,-,0.00,Snow,Light Snow,340,2014-01-05 13:18:00
7:29 AM,18.0,12.9,81,30.10,4.0,NNW,16.1,24.2,0.00,Snow,Light Snow,340,2014-01-05 13:29:00
7:53 AM,18.0,12.0,78,30.12,4.0,NNW,23.0,28.8,0.00,Snow,Light Snow,340,2014-01-05 13:53:00
8:00 AM,18.0,12.0,78,30.11,2.5,North,19.6,28.8,0.00,Snow,Light Snow,350,2014-01-05 14:00:00
8:11 AM,18.0,12.0,78,30.12,1.0,North,20.7,-,0.00,Snow,Light Snow,350,2014-01-05 14:11:00
8:41 AM,18.0,12.0,78,30.14,2.5,North,20.7,26.5,0.01,Snow,Light Snow,350,2014-01-05 14:41:00
8:53 AM,18.0,12.0,78,30.16,3.0,North,19.6,27.6,0.01,Snow,Light Snow,360,2014-01-05 14:53:00
9:18 AM,19.0,12.9,77,30.17,2.5,North,18.4,24.2,0.00,Snow,Light Snow,350,2014-01-05 15:18:00
9:34 AM,18.0,12.0,78,30.17,1.8,NNW,17.3,-,0.00,Snow,Light Snow,340,2014-01-05 15:34:00
9:53 AM,18.0,10.9,74,30.21,2.5,North,18.4,31.1,0.00,Snow,Light Snow,350,2014-01-05 15:53:00
10:07 AM,18.0,12.0,78,30.19,1.5,NNW,20.7,-,0.00,Snow,Light Snow,340,2014-01-05 16:07:00
10:17 AM,18.0,10.9,74,30.20,3.0,NNW,21.9,28.8,0.00,Snow,Light Snow,340,2014-01-05 16:17:00
10:53 AM,19.0,10.0,68,30.23,10.0,North,25.3,32.2,0.00,Snow,Light Snow,350,2014-01-05 16:53:00
11:53 AM,19.9,10.9,68,30.25,10.0,NNW,23.0,-,0.00,,Overcast,340,2014-01-05 17:53:00
12:53 PM,19.9,10.0,65,30.26,10.0,NNW,23.0,28.8,N/A,,Mostly Cloudy,330,2014-01-05 18:53:00
1:53 PM,21.0,10.0,63,30.29,10.0,NNW,18.4,27.6,N/A,,Mostly Cloudy,330,2014-01-05 19:53:00
2:53 PM,21.0,8.1,57,30.32,10.0,North,17.3,-,N/A,,Overcast,350,2014-01-05 20:53:00
3:53 PM,19.0,3.9,52,30.38,10.0,NNW,19.6,-,N/A,,Overcast,340,2014-01-05 21:53:00
4:53 PM,18.0,-0.0,45,30.43,10.0,North,20.7,31.1,N/A,,Mostly Cloudy,360,2014-01-05 22:53:00
5:53 PM,15.1,-0.9,49,30.48,10.0,North,17.3,-,N/A,,Mostly Cloudy,350,2014-01-05 23:53:00
6:53 PM,12.9,-2.0,51,30.53,10.0,NNW,13.8,-,N/A,,Partly Cloudy,340,2014-01-06 00:53:00
7:53 PM,12.0,-2.9,51,30.57,10.0,North,12.7,-,N/A,,Partly Cloudy,350,2014-01-06 01:53:00
8:53 PM,10.0,-2.9,56,30.60,10.0,NNW,11.5,-,N/A,,Partly Cloudy,340,2014-01-06 02:53:00
9:53 PM,12.0,-4.0,49,30.61,10.0,North,15.0,-,N/A,,Clear,360,2014-01-06 03:53:00
10:53 PM,7.0,-4.0,61,30.63,10.0,NNW,8.1,-,N/A,,Partly Cloudy,340,2014-01-06 04:53:00
11:53 PM,6.1,-5.1,60,30.65,10.0,NNW,8.1,-,N/A,,Clear,330,2014-01-06 05:53:00